This is the latest recevied weather packets stored in our database for station/object SR6WVX. If no packets are shown the sender has not sent any weather packets the latest 10 day(s).
| Time | Temp. | Humidity | Pressure | Rain* | Wind** | Luminosity | Snow |
|---|---|---|---|---|---|---|---|
| 1778067214 | 26.11° C | 42% | 1000.2 hPa | 0 mm | - | - | - |
| 1778066913 | 25° C | 44% | 1000.2 hPa | 0 mm | - | - | - |
| 1778066613 | 23.89° C | 44% | 1000.3 hPa | 0 mm | - | - | - |
| 1778066313 | 23.89° C | 45% | 1000.3 hPa | 0 mm | - | - | - |
| 1778066012 | 24.44° C | 44% | 1000.3 hPa | 0 mm | - | - | - |
| 1778065712 | 24.44° C | 45% | 1000.3 hPa | 0 mm | - | - | - |
| 1778065412 | 23.89° C | 46% | 1000.3 hPa | 0 mm | - | - | - |
| 1778065112 | 23.89° C | 45% | 1000.3 hPa | 0 mm | - | - | - |
| 1778064811 | 23.89° C | 45% | 1000.3 hPa | 0 mm | - | - | - |
| 1778064511 | 24.44° C | 45% | 1000.2 hPa | 0 mm | - | - | - |
| 1778064211 | 24.44° C | 46% | 1000 hPa | 0 mm | - | - | - |
| 1778063910 | 24.44° C | 46% | 1000 hPa | 0 mm | - | - | - |
| 1778063610 | 24.44° C | 45% | 1000 hPa | 0 mm | - | - | - |
| 1778063310 | 23.89° C | 47% | 1000 hPa | 0 mm | - | - | - |
| 1778063010 | 23.33° C | 47% | 1000 hPa | 0 mm | - | - | - |
| 1778062710 | 22.78° C | 47% | 1000 hPa | 0 mm | - | - | - |
| 1778062409 | 23.33° C | 46% | 1000.1 hPa | 0 mm | - | - | - |
| 1778062109 | 23.89° C | 43% | 1000 hPa | 0 mm | - | - | - |
| 1778061809 | 24.44° C | 42% | 1000 hPa | 0 mm | - | - | - |
| 1778061508 | 25.56° C | 41% | 1000 hPa | 0 mm | - | - | - |
| 1778061208 | 25° C | 43% | 999.8 hPa | 0 mm | - | - | - |
| 1778060908 | 24.44° C | 43% | 999.9 hPa | 0 mm | - | - | - |
| 1778060608 | 24.44° C | 43% | 1000 hPa | 0 mm | - | - | - |
| 1778060307 | 24.44° C | 44% | 999.9 hPa | 0 mm | - | - | - |
| 1778060007 | 23.89° C | 44% | 999.8 hPa | 0 mm | - | - | - |
* Rain latest hour (hover to see other rain measurements)
** Current wind speed in m/s (hover to see current wind gust speed)